Location: ?????
(54.9266°N, 38.5527°E)
Time: 04:45:43
(UTC+00:00)

BlueWalker 3 - Pass Details

Date: 14 April 2024
Orbit: 481 x 494 km, 53.2° (Epoch: 23 May)

Event Time Altitude Azimuth Distance (km) Brightness Sun altitude
Exits shadow 00:26:09 29° 248° (WSW) 936 2.8 -15.4°
Maximum altitude 00:27:28 40° 204° (SSW) 754 2.3 -15.2°
Drops below altitude 10° 00:31:04 10° 134° (SE) 1,698 4.7 -14.9°
Sets 00:33:19 0° 127° (SE) 2,576 5.7 -14.6°
